Find SERT 2

NORAD ID: 4327 Int'l Des: 1970-009 Owner: LERC Country: US operational
LEOCIRCULARRETROGRADESSO

Live Position

Loading 3D Globe...

About SERT 2

Description loading...

Upcoming Passes

Passes for default location (London). Set your location on the main map for personalized predictions.

Altitude History

Loading altitude history...

Two-Line Element Set

1 04327U 70009A 26110.62053297 .00000034 00000-0 10319-3 0 9990
2 04327 99.2812 51.4325 0005731 62.2586 110.6775 13.58735008785584
Epoch: Apr 20, 2026 • Age: 10 hours

Current Status

Altitude 1045.3 km
Velocity 7.34 km/s
Sub-Earth Point 55.98°N, 174.86°E
Type other

Most Searched